DW8873 Weather Reports


Display with metric or nautical units.
time (UTC)temp
F
wind
direction
speed
MPH
gust
MPH
rain 1hr
in
rain 24hr
in
rain mn
in
humidity
%
barometer
mb
20260905045346 89 297 2.0 12.0 0.00 0.00 0.00 27 1004.6
20260905044345 90 344 4.0 12.0 0.00 0.00 0.00 26 1004.6
20260905043344 90 316 4.0 13.0 0.00 0.00 0.00 27 1004.6
20260905042311 89 313 3.0 13.0 0.00 0.00 0.00 29 1004.6
20260905041238 90 325 4.0 14.0 0.00 0.00 0.00 28 1004.9
20260905040237 89 264 3.0 19.0 0.00 0.00 0.00 29 1004.9
20260905035235 88 348 3.0 20.0 0.00 0.00 0.00 31 1004.9
20260905034234 88 346 5.0 18.0 0.00 0.00 0.00 31 1005.2
20260905033130 87 348 3.0 20.0 0.00 0.00 0.00 32 1005.6
20260905032128 86 342 4.0 20.0 0.00 0.00 0.00 33 1005.9
20260905031126 85 339 7.0 22.0 0.00 0.00 0.00 33 1006.2
20260905030125 85 344 8.0 23.0 0.00 0.00 0.00 32 1006.6
20260905025123 85 350 4.0 23.0 0.00 0.00 0.00 34 1006.9
20260905024122 85 349 6.0 20.0 0.00 0.00 0.00 34 1007.2
20260905023049 84 341 5.0 19.0 0.00 0.00 0.00 35 1007.6
20260905022016 82 358 4.0 20.0 0.00 0.00 0.00 37 1008.3
20260905021015 81 340 6.0 17.0 0.00 0.00 0.00 37 1008.6
20260905020013 80 348 6.0 23.0 0.00 0.00 0.00 38 1008.9
20260905015011 80 335 6.0 23.0 0.00 0.00 0.00 37 1009.3
20260905013939 79 340 6.0 22.0 0.00 0.00 0.00 36 1009.6
20260905012938 79 357 7.0 19.0 0.00 0.00 0.00 38 1009.9
20260905011936 79 354 6.0 19.0 0.00 0.00 0.00 38 1009.9
20260905010935 79 349 5.0 14.0 0.00 0.00 0.00 38 1010.6
20260905005934 81 349 6.0 14.0 0.00 0.00 0.00 35 1010.6
20260905004932 81 2 4.0 12.0 0.00 0.00 0.00 35 1011.0
20260905003931 81 357 3.0 10.0 0.00 0.00 0.00 35 1011.3
20260905002929 80 328 1.0 10.0 0.00 0.00 0.00 37 1011.6
20260905001928 78 351 2.0 8.0 0.00 0.00 0.00 39 1012.0
20260905000926 77 348 3.0 8.0 0.00 0.00 0.00 40 1012.3
20260904235854 78 0 3.0 11.0 0.00 0.00 0.00 39 1012.3
20260904234852 79 356 5.0 11.0 0.00 0.00 0.00 37 1012.7
20260904233851 79 41 2.0 5.0 0.00 0.00 0.00 40 1013.0
20260904232849 78 351 3.0 9.0 0.00 0.00 0.00 40 1013.3
20260904231847 77 347 2.0 9.0 0.00 0.00 0.00 43 1013.3
20260904230846 76 354 2.0 11.0 0.00 0.00 0.00 44 1013.7
20260904225845 74 335 1.0 11.0 0.00 0.00 0.00 46 1013.7
20260904224844 75 350 4.0 9.0 0.00 0.00 0.00 46 1013.7
20260904223810 73 334 1.0 12.0 0.00 0.00 0.00 48 1014.0
20260904222738 74 1 2.0 4.0 0.00 0.00 0.00 47 1014.3
20260904221603 73 21 2.0 3.0 0.00 0.00 0.00 50 1014.7
20260904220602 72 343 1.0 4.0 0.00 0.00 0.00 54 1014.7
20260904215600 69 342 1.0 3.0 0.00 0.00 0.00 56 1014.7
20260904214559 68 343 1.0 5.0 0.00 0.00 0.00 57 1014.6
20260904213557 66 344 1.0 8.0 0.00 0.00 0.00 57 1015.0
20260904212525 65 339 3.0 8.0 0.00 0.00 0.00 57 1015.0
20260904211524 64 343 3.0 8.0 0.00 0.00 0.00 57 1015.0
20260904210522 63 343 3.0 5.0 0.00 0.00 0.00 54 1014.6
20260904205521 62 339 1.0 4.0 0.00 0.00 0.00 51 1015.0
20260904204519 61 338 2.0 5.0 0.00 0.00 0.00 51 1015.0
20260904203518 61 334 2.0 3.0 0.00 0.00 0.00 51 1015.0
20260904202517 61 334 2.0 2.0 0.00 0.00 0.00 49 1015.0
20260904201515 62 334 1.0 5.0 0.00 0.00 0.00 53 1015.3
20260904200442 62 334 1.0 5.0 0.00 0.00 0.00 53 1015.0
20260904195440 61 342 1.0 3.0 0.00 0.00 0.00 49 1015.0
20260904194438 62 335 0.0 6.0 0.00 0.00 0.00 51 1015.0
20260904193437 62 335 1.0 6.0 0.00 0.00 0.00 53 1015.0
20260904192435 62 341 1.0 6.0 0.00 0.00 0.00 53 1014.6
20260904191433 63 337 2.0 7.0 0.00 0.00 0.00 53 1014.6
20260904190432 63 343 2.0 7.0 0.00 0.00 0.00 52 1014.6
20260904185431 63 339 3.0 7.0 0.00 0.00 0.00 49 1014.6
20260904184430 62 348 2.0 8.0 0.00 0.00 0.00 47 1015.0
20260904183428 62 337 3.0 8.0 0.00 0.00 0.00 44 1015.0
20260904182427 61 348 3.0 6.0 0.00 0.00 0.00 36 1015.3
20260904181426 61 346 2.0 6.0 0.00 0.00 0.00 28 1015.3
20260904180424 61 341 2.0 6.0 0.00 0.00 0.00 28 1015.0
20260904175422 61 346 2.0 5.0 0.00 0.00 0.00 26 1015.0
20260904174421 60 349 2.0 5.0 0.00 0.00 0.00 23 1015.0
20260904173419 60 349 1.0 7.0 0.00 0.00 0.00 16 1015.0
20260904172347 58 342 3.0 7.0 0.00 0.00 0.00 1 1015.0
20260904171315 57 339 2.0 4.0 0.00 0.00 0.00 1 1015.0
20260904170313 58 339 0.0 3.0 0.00 0.00 0.00 1 1015.3
20260904165312 58 339 1.0 5.0 0.00 0.00 0.00 1 1015.3
20260904164310 57 339 3.0 5.0 0.00 0.00 0.00 1 1015.6
20260904163309 57 337 0.0 3.0 0.00 0.00 0.00 1 1015.6
20260904162236 56 334 1.0 3.0 0.00 0.00 0.00 1 1015.6
20260904161235 56 334 0.0 0.0 0.00 0.00 0.00 1 1016.0
20260904160233 56 333 0.0 0.0 0.00 0.00 0.00 1 1016.3
20260904155200 56 333 0.0 0.0 0.00 0.00 0.00 1 1016.3
20260904154159 56 334 0.0 1.0 0.00 0.00 0.00 1 1016.3
20260904153157 56 334 0.0 1.0 0.00 0.00 0.00 1 1016.7
20260904152155 57 334 1.0 2.0 0.00 0.00 0.00 1 1016.7
20260904151153 57 333 0.0 2.0 0.00 0.00 0.00 1 1017.0
20260904150151 57 334 1.0 2.0 0.00 0.00 0.00 1 1017.0
20260904145150 57 324 0.0 2.0 0.00 0.00 0.00 1 1017.3
20260904144148 57 323 1.0 2.0 0.00 0.00 0.00 1 1017.3
20260904143147 57 324 0.0 2.0 0.00 0.00 0.00 1 1017.3
20260904142128 57 322 0.0 2.0 0.00 0.00 0.00 1 1017.3
20260904141126 57 322 2.0 2.0 0.00 0.00 0.00 1 1017.0
20260904140125 57 293 1.0 2.0 0.00 0.00 0.00 1 1017.3
20260904135123 58 293 1.0 1.0 0.00 0.00 0.00 1 1017.3
20260904134122 59 293 1.0 1.0 0.00 0.00 0.00 1 1017.3
20260904133049 59 293 0.0 1.0 0.00 0.00 0.00 1 1017.7
20260904132048 59 293 0.0 1.0 0.00 0.00 0.00 1 1017.7
20260904131047 59 293 0.0 1.0 0.00 0.00 0.00 1 1017.7
20260904130045 59 293 0.0 2.0 0.00 0.00 0.00 1 1017.7
20260904125012 59 280 0.0 2.0 0.00 0.00 0.00 1 1017.7
20260904124011 60 175 1.0 1.0 0.00 0.00 0.00 1 1018.0
20260904123009 60 175 0.0 0.0 0.00 0.00 0.00 1 1018.3
20260904122008 60 175 0.0 1.0 0.00 0.00 0.00 1 1018.3
20260904120904 61 175 0.0 1.0 0.00 0.00 0.00 1 1018.3
20260904115903 61 175 0.0 1.0 0.00 0.00 0.00 3 1018.3
20260904114901 62 175 0.0 1.0 0.00 0.00 0.00 8 1018.3
20260904113859 63 175 0.0 0.0 0.00 0.00 0.00 21 1018.4
20260904112858 63 175 0.0 0.0 0.00 0.00 0.00 25 1018.4
20260904111825 63 175 0.0 0.0 0.00 0.00 0.00 28 1018.4
20260904110823 63 175 0.0 0.0 0.00 0.00 0.00 31 1018.7
20260904105822 64 175 0.0 2.0 0.00 0.00 0.00 35 1018.4
20260904104821 64 175 0.0 4.0 0.00 0.00 0.00 37 1018.4
20260904103748 64 175 0.0 4.0 0.00 0.00 0.00 40 1018.4
20260904102715 64 341 0.0 7.0 0.00 0.00 0.00 43 1018.0
20260904101713 64 326 2.0 7.0 0.00 0.00 0.00 44 1017.7
20260904100711 64 337 3.0 7.0 0.00 0.00 0.00 46 1017.7
20260904095505 64 0 2.0 6.0 0.00 0.00 0.00 47 1017.3
20260904094504 64 328 1.0 5.0 0.00 0.00 0.00 49 1017.3
20260904093503 65 337 1.0 5.0 0.00 0.00 0.00 51 1017.3
20260904092430 65 337 1.0 3.0 0.00 0.00 0.00 52 1017.0
20260904091429 65 339 0.0 3.0 0.00 0.00 0.00 54 1017.0
20260904090356 65 339 1.0 5.0 0.00 0.00 0.00 53 1017.0
20260904085323 65 339 1.0 5.0 0.00 0.00 0.00 53 1016.6
20260904084321 66 16 2.0 4.0 0.00 0.00 0.00 53 1016.6
20260904083248 66 26 1.0 7.0 0.00 0.00 0.00 53 1016.6
20260904082246 66 5 1.0 7.0 0.00 0.00 0.00 52 1016.6
20260904081245 66 18 2.0 3.0 0.00 0.00 0.00 51 1016.3
20260904080243 67 18 0.0 7.0 0.00 0.00 0.00 51 1016.3
20260904075241 67 18 2.0 7.0 0.00 0.00 0.00 52 1016.3
20260904074240 68 7 2.0 8.0 0.00 0.00 0.00 53 1016.0
20260904073238 68 24 2.0 8.0 0.00 0.00 0.00 54 1016.0
20260904072236 68 13 1.0 6.0 0.00 0.00 0.00 53 1015.6
20260904071235 68 51 2.0 6.0 0.00 0.00 0.00 54 1015.6
20260904070234 69 91 3.0 7.0 0.00 0.00 0.00 54 1015.6
20260904065232 69 18 3.0 7.0 0.00 0.00 0.00 53 1015.6
20260904064231 69 88 3.0 9.0 0.00 0.00 0.00 53 1015.6
20260904063230 69 55 3.0 10.0 0.00 0.00 0.00 53 1015.6
20260904062228 70 33 4.0 13.0 0.00 0.00 0.00 52 1015.3
20260904061227 70 42 7.0 13.0 0.00 0.00 0.00 51 1015.3
20260904060154 72 353 3.0 11.0 0.00 0.00 0.00 49 1015.7
20260904055152 74 10 2.0 7.0 0.00 0.00 0.00 41 1015.3
20260904054150 74 296 0.0 2.0 0.00 0.00 0.00 36 1015.7
20260904053148 75 235 0.0 2.0 0.00 0.00 0.00 36 1015.7
20260904052147 76 235 1.0 2.0 0.00 0.00 0.00 36 1015.7
20260904051145 76 224 1.0 2.0 0.00 0.00 0.00 35 1015.7
20260904050144 77 133 1.0 2.0 0.00 0.00 0.00 35 1016.0